Location: ??????
(41.3164°N, 22.6615°E)
Time: 09:34:40
(UTC+00:00)

Cosmos 1934 Rocket - Pass Details

Date: 16 October 2021
Orbit: 939 x 998 km, 83.0° (Epoch: 07 December)

Event Time Altitude Azimuth Distance (km) Brightness Sun altitude
Rises 17:47:57 0° 195° (SSW) 3,638 7.1 -23.5°
Reaches altitude 10° 17:50:29 10° 198° (SSW) 2,687 6.4 -23.9°
Maximum altitude 17:56:34 64° 280° (W) 1,050 4.3 -25.1°
Drops below altitude 10° 18:02:37 10° 1° (N) 2,671 6.4 -26.2°
Sets 18:05:08 0° 5° (N) 3,615 7.1 -26.6°
